IDEFIX & ARIANE 42P R/B

Last updated on Wed Sep 23 2026 00:02:23 GMT+0000 (Coordinated Universal Time)

1 27422U 02021B 26265.45292856 .00000119 00000+0 61866-4 0 9995 2 27422 98.5986 201.8979 0011408 334.1422 25.9189 14.31118870272169
UTC large
Height (km)
Speed (km/s)
/
Latitude / Longitude
Inclination (degrees)
Orbital Period (minutes)
Azimuth
Elevation
Range (km)
Doppler Factor

Next 0 passes for location: London (51.5072 / 0.1276)

No passes found over London.
IDEFIX & ARIANE 42P R/B